Date String (YYYY-MM-DD hh:mm:ss) UTC,Instrument flags,Ambient pressure (hPa),Sample flow (lpm),Bypass flow (lpm),Sample temperature (°C),Ambient temperature (°C),ASC tube jacket temperature (°C),LED temperature (°C),Box temperature (°C),Sample RH (%),Span deviation,Mass concentration (μg/m³),Mass concentration (μg/m³),Mass concentration (μg/m³)
DateTimeUTC,F1_M11,P_M11,Q1_M11,Q2_M11,T1_M11,T2_M11,T3_M11,T4_M11,T5_M11,U1_M11,ZSPAN_M11,X0_M11,X2_M11,X1_M11
2022-04-03 14:00:00,,0825.4,5.01,0.00,26.2,25.3,00.0,35.2,28.0,13.3,0000.0,0020.11,0005.07,0002.55
2022-04-03 14:01:00,,0825.4,4.99,0.00,26.2,25.3,00.0,35.2,28.0,13.2,0000.0,0020.96,0005.12,0002.54
2022-04-03 14:02:00,,0825.5,5.00,0.00,26.2,25.4,00.0,35.2,28.0,13.1,0000.0,0021.82,0005.23,0002.50
2022-04-03 14:03:00,,0825.4,5.00,0.00,26.2,25.4,00.0,35.2,28.0,13.0,0000.0,0022.70,0005.32,0002.49
2022-04-03 14:04:00,,0825.5,5.00,0.00,26.2,25.4,00.0,35.2,28.0,13.1,0000.0,0023.40,0005.30,0002.45
2022-04-03 14:05:00,,0825.5,5.00,0.00,26.2,25.5,00.0,35.2,28.0,13.2,0000.0,0022.81,0005.29,0002.42
2022-04-03 14:06:00,,0825.5,4.99,0.00,26.3,25.5,00.0,35.2,28.1,13.1,0000.0,0022.13,0005.32,0002.42
2022-04-03 14:07:00,,0825.5,4.99,0.00,26.3,25.5,00.0,35.2,28.1,13.0,0000.0,0021.46,0005.30,0002.40
2022-04-03 14:08:00,,0825.5,5.00,0.00,26.3,25.6,00.0,35.2,28.1,13.0,0000.0,0021.41,0005.30,0002.37
2022-04-03 14:09:00,,0825.5,5.00,0.00,26.3,25.6,00.0,35.2,28.1,12.9,0000.0,0020.99,0005.29,0002.35
2022-04-03 14:10:00,,0825.5,4.98,0.00,26.3,25.6,00.0,35.2,28.1,13.0,0000.0,0020.92,0005.28,0002.35
2022-04-03 14:11:00,,0825.5,5.00,0.00,26.3,25.6,00.0,35.2,28.2,12.9,0000.0,0022.43,0005.31,0002.31
2022-04-03 14:12:00,,0825.5,5.01,0.00,26.3,25.6,00.0,35.2,28.2,12.9,0000.0,0021.64,0005.28,0002.28
2022-04-03 14:13:00,,0825.5,5.00,0.00,26.4,25.6,00.0,35.2,28.2,13.0,0000.0,0020.73,0005.15,0002.25
2022-04-03 14:14:00,,0825.5,5.00,0.00,26.4,25.6,00.0,35.2,28.2,13.0,0000.0,0020.34,0005.02,0002.22
2022-04-03 14:15:00,,0825.6,4.99,0.00,26.4,25.6,00.0,35.2,28.2,12.9,0000.0,0020.24,0005.01,0002.21
2022-04-03 14:16:00,,0825.6,5.00,0.00,26.4,25.7,00.0,35.3,28.2,12.9,0000.0,0021.15,0005.12,0002.22
2022-04-03 14:17:00,,0825.6,5.00,0.00,26.4,25.7,00.0,35.3,28.2,12.8,0000.0,0021.31,0005.15,0002.20
2022-04-03 14:18:00,,0825.6,5.00,0.00,26.4,25.7,00.0,35.3,28.2,12.8,0000.0,0021.42,0005.15,0002.21
2022-04-03 14:19:00,,0825.6,5.00,0.00,26.4,25.6,00.0,35.3,28.2,12.7,0000.0,0021.59,0005.11,0002.23
2022-04-03 14:20:00,,0825.6,5.00,0.00,26.4,25.6,00.0,35.3,28.2,12.7,0000.0,0021.07,0005.08,0002.22
2022-04-03 14:21:00,,0825.6,5.00,0.00,26.4,25.5,00.0,35.3,28.2,12.8,0000.0,0020.93,0005.08,0002.22
2022-04-03 14:22:00,,0825.6,5.01,0.00,26.3,25.5,00.0,35.3,28.2,12.8,0000.0,0019.95,0005.03,0002.24
2022-04-03 14:23:00,,0825.6,4.99,0.00,26.3,25.5,00.0,35.3,28.1,12.8,0000.0,0022.11,0005.00,0002.25
2022-04-03 14:24:00,,0825.6,5.01,0.00,26.3,25.5,00.0,35.3,28.1,13.0,0000.0,0023.04,0005.00,0002.26
2022-04-03 14:25:00,,0825.5,4.99,0.00,26.3,25.5,00.0,35.3,28.1,13.0,0000.0,0023.62,0005.05,0002.26
2022-04-03 14:26:00,,0825.5,5.00,0.00,26.3,25.4,00.0,35.3,28.1,13.1,0000.0,0023.90,0005.01,0002.27
2022-04-03 14:27:00,,0825.6,5.00,0.00,26.3,25.4,00.0,35.2,28.1,12.9,0000.0,0023.49,0004.92,0002.28
2022-04-03 14:28:00,,0825.6,5.00,0.00,26.3,25.3,00.0,35.2,28.0,13.0,0000.0,0024.01,0004.90,0002.29
2022-04-03 14:29:00,,0825.6,5.00,0.00,26.2,25.3,00.0,35.2,28.0,12.8,0000.0,0023.95,0004.97,0002.30
2022-04-03 14:30:00,,0825.6,5.01,0.00,26.2,25.2,00.0,35.2,28.0,12.9,0000.0,0024.08,0004.99,0002.27
2022-04-03 14:31:00,,0825.5,4.99,0.00,26.2,25.2,00.0,35.2,28.0,13.0,0000.0,0024.10,0005.03,0002.28
2022-04-03 14:32:00,,0825.5,5.01,0.00,26.2,25.1,00.0,35.2,27.9,12.9,0000.0,0024.02,0005.00,0002.28
2022-04-03 14:33:00,,0825.5,5.00,0.00,26.2,25.1,00.0,35.2,27.9,12.8,0000.0,0024.36,0004.97,0002.25
2022-04-03 14:34:00,,0825.5,4.99,0.00,26.1,25.0,00.0,35.1,27.9,12.9,0000.0,0023.48,0004.95,0002.24
2022-04-03 14:35:00,,0825.5,4.99,0.00,26.1,25.0,00.0,35.1,27.8,13.1,0000.0,0022.99,0005.00,0002.23
2022-04-03 14:36:00,,0825.5,5.00,0.00,26.1,25.0,00.0,35.1,27.8,13.1,0000.0,0022.91,0005.02,0002.25
2022-04-03 14:37:00,,0825.6,5.00,0.00,26.0,24.9,00.0,35.1,27.7,13.3,0000.0,0023.27,0005.07,0002.27
2022-04-03 14:38:00,,0825.6,5.00,0.00,26.0,24.8,00.0,35.1,27.7,13.3,0000.0,0023.38,0005.10,0002.28
2022-04-03 14:39:00,,0825.5,5.00,0.00,26.0,24.9,00.0,35.1,27.7,13.1,0000.0,0022.93,0005.07,0002.27
2022-04-03 14:40:00,,0825.6,5.00,0.00,26.0,25.0,00.0,35.0,27.7,12.9,0000.0,0023.01,0004.98,0002.26
2022-04-03 14:41:00,,0825.6,5.00,0.00,26.0,25.0,00.0,35.0,27.7,13.1,0000.0,0022.10,0004.94,0002.27
2022-04-03 14:42:00,,0825.6,5.01,0.00,25.9,24.9,00.0,35.0,27.7,13.1,0000.0,0022.70,0004.90,0002.26
2022-04-03 14:43:00,,0825.6,5.01,0.00,25.9,24.9,00.0,35.0,27.7,13.2,0000.0,0023.13,0004.91,0002.25
2022-04-03 14:44:00,,0825.6,4.99,0.00,25.9,24.9,00.0,35.0,27.6,13.3,0000.0,0023.34,0004.92,0002.23
2022-04-03 14:45:00,,0825.5,4.99,0.00,25.9,24.8,00.0,35.0,27.6,13.3,0000.0,0023.02,0004.94,0002.22
2022-04-03 14:46:00,,0825.6,5.00,0.00,25.8,24.9,00.0,34.9,27.6,13.3,0000.0,0023.78,0005.00,0002.22
2022-04-03 14:47:00,,0825.6,4.99,0.00,25.8,25.0,00.0,34.9,27.6,13.3,0000.0,0024.29,0005.01,0002.18
2022-04-03 14:48:00,,0825.6,5.00,0.00,25.8,25.0,00.0,34.9,27.5,13.3,0000.0,0024.22,0004.99,0002.13
2022-04-03 14:49:00,,0825.7,5.00,0.00,25.8,25.0,00.0,34.9,27.6,13.3,0000.0,0024.66,0004.99,0002.07
2022-04-03 14:50:00,,0825.7,5.01,0.00,25.8,25.0,00.0,34.9,27.6,13.2,0000.0,0025.38,0004.96,0002.03
2022-04-03 14:51:00,,0825.7,5.01,0.00,25.8,24.9,00.0,34.9,27.6,13.4,0000.0,0025.50,0004.90,0002.01
2022-04-03 14:52:00,,0825.6,5.00,0.00,25.8,24.9,00.0,34.9,27.5,13.2,0000.0,0024.70,0004.89,0001.99
2022-04-03 14:53:00,,0825.6,5.00,0.00,25.7,24.8,00.0,34.8,27.5,13.2,0000.0,0024.05,0004.87,0001.97
2022-04-03 14:54:00,,0825.6,5.00,0.00,25.7,24.7,00.0,34.8,27.4,13.5,0000.0,0024.68,0004.96,0002.00
2022-04-03 14:55:00,,0825.6,4.99,0.00,25.7,24.7,00.0,34.8,27.4,13.3,0000.0,0024.28,0004.96,0002.00
2022-04-03 14:56:00,,0825.6,5.00,0.00,25.7,24.6,00.0,34.8,27.4,13.4,0000.0,0024.56,0004.98,0001.98
2022-04-03 14:57:00,,0825.6,5.00,0.00,25.7,24.6,00.0,34.8,27.4,13.4,0000.0,0024.98,0004.90,0001.97
2022-04-03 14:58:00,,0825.7,5.00,0.00,25.6,24.6,00.0,34.7,27.3,13.3,0000.0,0025.02,0004.84,0001.97
2022-04-03 14:59:00,,0825.7,5.00,0.00,25.6,24.7,00.0,34.7,27.3,13.4,0000.0,0024.68,0004.77,0001.98
